Tracking 25693 objects as of 30-Jun-2022
HD Live streaming from Space Station
objects crossing your sky now

STARLINK-1956

Track STARLINK-1956 now!
10-day predictions
STARLINK-1956 is classified as:


NORAD ID: 47557
Int'l Code: 2021-009K
Perigee: 553.3 km
Apogee: 555.4 km
Inclination: 53.1 °
Period: 95.6 minutes
Semi major axis: 6925 km
RCS: Unknown
Launch date: February 4, 2021
Source: United States (US)
Launch site: AIR FORCE EASTERN TEST RANGE (AFETR)
aabbcc
Your satellite tracking list
Your tracking list is empty




NASA's NSSDC Master Catalog

Two Line Element Set (TLE):
1 47557U 21009K   22181.56574221  .00002038  00000-0  15570-3 0  9990
2 47557  53.0552 333.5768 0001564  64.3703 295.7448 15.06394829 77329
Source of the keplerian elements: AFSPC